Flag for U.S.A. Weather past 2 weeks in Amarillo, Texas, U.S.A.

Now
42 °F

Sunny.


Feels Like: 33 °F
Forecast: 35 / 61 °F
Wind: 20 mph from Southwest

Location: Amarillo International Airport

Current Time: Dec 25, 2014 at 9:48:10 AM

Latest Report: Dec 25, 2014 at 8:53 AM


Visibility: 10 mi

Pressure: 29.64 "Hg

Humidity: 32%

Dew point: 14 °F

Location of AmarilloLocation

Historic Weather in Amarillo — Graph

°F

Amarillo temperature yesterday

Maximum temperature yesterday: 48 °F (at 3:53 PM)
Minimum temperature yesterday: 21 °F (at 7:53 AM)
Average temperature yesterday: 34 °F

Past Weeks' High & Low Weather Summary

 TemperatureHumidityPressure
High69 °F (Dec 13, 2:53 PM)100% (Dec 10, 8:55 AM)30.38 "Hg (Dec 10, 8:55 AM)
Low21 °F (Dec 24, 7:53 AM)19% (Dec 24, 4:53 PM)29.49 "Hg (Dec 14, 1:53 PM)
Average42 °F73%29.98 "Hg
* Reported Dec 10 7:53 AM — Dec 25 7:53 AM, Amarillo, Weather by CustomWeather, © 2014

Note: Actual official high and low records may vary slightly from our data, if they occured in-between our weather recording intervals... More about our weather records

Advertising

Amarillo weather history for previous 24 hours

 ConditionsComfort  
Time TempWeatherWind HumidityBarometerVisibility
7:53 AM
Dec 25
38 °FSunny.17 mph37%29.65 "Hg10 mi
6:53 AM42 °FClear.18 mph30%29.62 "Hg10 mi
5:53 AM41 °FClear.20 mph33%29.61 "Hg10 mi
4:53 AM40 °FClear.18 mph36%29.60 "Hg10 mi
3:53 AM40 °FClear.18 mph36%29.61 "Hg10 mi
2:53 AM39 °FClear.22 mph41%29.63 "Hg10 mi
1:53 AM38 °FClear.18 mph43%29.66 "Hg10 mi
12:53 AM38 °FClear.18 mph45%29.69 "Hg10 mi
11:53 PM
Dec 24
38 °FClear.22 mph45%29.73 "Hg10 mi
10:53 PM38 °FClear.21 mph45%29.78 "Hg10 mi
9:53 PM39 °FClear.23 mph41%29.80 "Hg10 mi
8:53 PM33 °FClear.10 mph48%29.85 "Hg10 mi
7:53 PM32 °FClear.12 mph47%29.90 "Hg10 mi
6:53 PM35 °FClear.12 mph36%29.90 "Hg10 mi
5:53 PM39 °FClear.8 mph29%29.91 "Hg10 mi
4:53 PM47 °FSunny.14 mph19%29.90 "Hg10 mi
3:53 PM48 °FSunny.16 mph21%29.90 "Hg10 mi
2:53 PM47 °FSunny.18 mph23%29.93 "Hg10 mi
1:53 PM46 °FSunny.17 mph24%29.97 "Hg10 mi
12:53 PM44 °FSunny.12 mph24%30.01 "Hg10 mi
11:53 AM40 °FSunny.12 mph33%30.07 "Hg10 mi
10:53 AM36 °FSunny.16 mph42%30.12 "Hg10 mi
9:53 AM31 °FSunny.12 mph52%30.13 "Hg10 mi
Weather by CustomWeather, © 2014

See weather overviewHow to use our weather pages